Date,TemperatureHighF,TemperatureAvgF,TemperatureLowF,DewpointHighF,DewpointAvgF,DewpointLowF,HumidityHigh,HumidityAvg,HumidityLow,PressureMaxIn,PressureMinIn,WindSpeedMaxMPH,WindSpeedAvgMPH,GustSpeedMaxMPH,PrecipitationSumIn
2013-1-1,34.1,31.5,25.4,32.0,28.1,21.0,96,88,75,30.20,30.08,3,0,7,0.00
2013-1-2,31.4,23.7,16.8,21.2,17.4,11.4,93,77,55,30.32,30.18,4,0,6,0.00
2013-1-3,35.7,26.1,14.9,24.8,18.5,12.2,91,74,49,30.38,30.26,7,1,13,0.00
2013-1-4,37.0,31.8,28.6,25.8,23.7,21.5,80,72,57,30.40,30.34,10,2,16,0.00
2013-1-5,41.7,32.5,21.9,29.9,26.0,19.8,94,78,57,30.42,30.22,3,0,7,0.00
2013-1-6,39.2,34.4,28.2,33.6,28.6,22.8,87,79,75,30.40,30.07,9,2,18,0.00
2013-1-7,41.1,30.6,21.1,29.1,24.9,19.6,95,80,60,30.53,30.31,3,0,8,0.00
2013-1-8,50.4,35.2,23.2,35.9,29.1,21.5,95,80,56,30.38,30.27,4,0,8,0.01
2013-1-9,54.9,44.7,32.8,45.3,38.0,30.0,94,78,55,30.55,30.26,7,1,12,0.06
2013-1-10,45.4,37.6,28.4,40.2,33.8,27.2,97,86,69,30.56,30.15,5,1,9,0.09
2013-1-11,62.6,53.6,45.6,55.4,49.5,40.4,97,86,69,30.15,29.93,7,1,14,0.47
2013-1-12,65.2,60.1,51.6,62.1,57.5,48.3,96,91,82,30.05,29.82,4,1,8,0.02
2013-1-13,66.4,54.3,35.3,61.9,52.5,32.8,97,94,79,30.16,29.74,10,2,18,1.02
2013-1-14,35.2,27.2,23.8,33.1,23.2,20.7,92,85,77,30.51,30.16,7,1,13,0.00
2013-1-15,33.1,28.6,22.9,27.0,23.8,20.4,91,82,74,30.43,30.14,5,1,9,0.00
2013-1-16,37.4,33.3,31.4,30.2,27.9,26.3,87,81,65,30.15,30.03,4,0,7,0.00
2013-1-17,44.1,34.4,27.8,32.7,27.2,20.2,85,75,56,30.44,30.14,6,1,14,0.00
2013-1-18,40.4,30.3,19.0,26.3,20.7,16.6,92,69,46,30.58,30.29,4,1,10,0.00
2013-1-19,54.6,45.5,37.5,31.0,28.6,26.0,67,52,37,30.29,29.96,6,2,12,0.00
2013-1-20,47.3,34.7,27.1,36.3,19.0,11.2,71,53,39,30.27,29.96,11,3,19,0.00
2013-1-21,27.1,22.0,12.9,17.4,10.4,0.3,74,61,43,30.32,30.16,11,4,22,0.00
2013-1-22,19.1,13.4,7.1,2.0,0.2,-1.4,70,56,42,30.47,30.31,8,2,15,0.00
2013-1-23,22.9,18.7,11.8,11.5,5.8,1.4,68,57,49,30.43,30.16,6,1,9,0.00
2013-1-24,24.5,20.3,14.9,12.8,6.5,1.4,70,55,37,30.66,30.16,10,2,19,0.00
2013-1-25,26.9,23.2,20.1,22.2,15.6,7.4,88,73,54,30.51,30.11,4,1,8,0.00
2013-1-26,33.3,25.4,19.6,21.7,18.9,15.9,90,77,56,30.50,30.19,4,1,8,0.00
2013-1-27,38.0,29.6,19.8,35.0,23.4,16.6,95,78,60,30.50,30.23,5,1,8,0.23
2013-1-28,53.7,47.7,36.4,52.1,45.7,35.1,97,93,80,30.23,30.07,4,1,9,0.12
2013-1-29,63.8,59.1,52.5,58.9,54.8,50.5,94,86,78,30.08,29.60,6,2,15,0.00
2013-1-30,66.8,53.1,33.2,60.2,49.1,26.4,97,86,76,29.60,29.29,14,4,28,1.00
2013-1-31,33.1,27.3,16.8,26.6,19.9,10.6,91,74,60,30.10,29.58,13,5,26,0.00
2013-2-1,19.4,12.7,7.2,10.5,4.9,0.1,81,70,60,30.48,30.10,10,3,19,0.00
2013-2-2,32.4,24.2,13.7,27.3,20.1,8.1,90,84,75,30.41,30.06,5,1,12,0.00
2013-2-3,28.3,21.9,16.3,24.4,16.4,12.2,92,79,71,30.18,29.99,7,2,11,0.00
2013-2-4,35.0,27.6,16.7,33.5,24.3,14.8,96,88,72,30.18,29.88,4,0,7,0.00
2013-2-5,37.4,33.6,28.1,34.7,30.0,25.3,97,87,78,30.06,29.90,4,1,8,0.04
2013-2-6,37.5,34.2,28.9,32.4,28.8,26.0,90,80,72,30.31,30.06,7,1,15,0.02
2013-2-7,60.5,43.3,31.5,40.0,33.4,27.1,87,70,42,30.26,29.84,3,0,6,0.00
2013-2-8,53.0,38.0,32.1,45.5,32.4,24.0,93,80,59,30.36,29.83,10,3,21,0.11
2013-2-9,41.6,32.1,20.3,24.3,21.1,17.8,92,65,40,30.48,30.27,3,1,7,0.00
2013-2-10,55.1,42.9,30.8,45.4,31.6,21.3,93,65,43,30.28,29.83,7,2,18,0.03
2013-2-11,52.8,47.2,38.7,50.3,36.8,28.9,95,68,49,30.08,29.80,13,4,27,0.00
2013-2-12,50.8,39.0,30.2,30.1,27.5,24.9,84,65,38,30.17,29.95,5,1,12,0.00
2013-2-13,36.0,32.3,30.0,29.6,28.2,26.1,92,85,69,29.94,29.82,3,0,6,0.00
2013-2-15,42.0,35.1,27.8,33.1,28.8,23.6,91,78,60,30.20,30.05,8,2,15,0.00
2013-2-16,29.7,24.0,18.7,21.0,16.4,10.8,94,73,52,30.18,30.09,8,2,16,0.00
2013-2-17,20.6,20.1,18.6,15.2,12.8,11.4,84,73,67,30.19,30.17,4,1,7,0.00
2013-2-18,57.4,52.6,45.4,40.9,36.6,33.4,84,56,44,29.90,29.79,6,2,15,0.08
2013-2-19,45.7,33.2,24.5,41.9,26.5,15.6,95,76,59,30.16,29.69,12,4,24,0.18
2013-2-20,29.3,22.7,20.0,17.4,13.5,11.4,77,68,53,30.36,30.16,9,3,19,0.00
2013-2-21,32.9,26.5,20.1,26.8,19.2,13.6,88,74,62,30.42,30.10,7,1,11,0.00
2013-2-22,43.7,35.6,30.0,39.2,33.2,26.8,97,91,82,30.13,29.94,7,1,20,0.01
2013-2-23,44.1,36.5,31.8,34.1,28.2,25.5,96,73,50,30.04,29.95,6,1,12,0.00
2013-2-24,43.2,33.0,26.4,27.1,24.5,21.4,86,72,50,30.20,29.98,6,1,10,0.00
2013-2-25,46.6,35.6,24.6,27.9,24.7,20.7,88,66,47,30.22,29.94,5,1,10,0.00
2013-2-26,48.6,41.5,35.1,47.4,37.2,25.1,96,85,63,29.95,29.39,10,1,15,0.88
2013-2-27,42.1,37.2,33.6,40.2,34.5,30.6,94,90,81,29.76,29.55,7,1,17,0.05
2013-2-28,36.9,34.8,32.7,33.9,31.9,29.3,93,89,85,29.99,29.73,9,2,14,0.04
2013-3-1,36.7,34.2,30.0,33.7,31.4,23.8,96,89,77,30.09,29.97,4,1,9,0.03
2013-3-2,30.0,28.3,26.8,24.1,22.5,21.1,84,79,73,30.14,30.07,5,1,12,0.00
2013-3-3,31.9,28.2,21.0,25.7,21.7,18.3,90,76,65,30.15,30.09,6,1,10,0.00
2013-3-4,43.5,32.1,18.3,26.8,22.3,16.3,95,69,45,30.23,30.04,5,1,9,0.00
2013-3-5,38.9,36.5,30.8,37.6,32.2,25.7,96,85,61,30.06,29.62,5,2,14,0.32
2013-3-6,32.9,30.5,28.2,30.4,28.8,27.1,96,93,89,30.31,29.68,6,2,12,0.00
2013-3-7,38.4,33.7,30.8,33.9,30.1,26.9,95,87,75,30.43,30.29,4,1,7,0.16
2013-3-8,44.9,34.1,23.5,27.5,25.1,22.1,96,72,43,30.53,30.42,4,0,7,0.02
2013-3-9,56.9,43.4,27.5,36.4,31.3,25.1,93,65,44,30.44,30.07,5,1,8,0.00
2013-3-10,69.2,59.3,51.7,44.5,36.5,34.5,62,44,30,30.07,29.84,6,1,12,0.03
2013-3-11,58.0,48.8,38.4,52.5,44.9,32.5,96,87,58,29.89,29.62,10,2,19,1.05
2013-3-12,46.2,38.4,33.9,33.0,30.0,26.9,92,72,53,30.10,29.88,8,2,15,0.00
2013-3-13,33.8,30.0,26.4,31.7,25.6,19.3,94,84,70,30.37,30.05,10,3,19,0.01
2013-3-14,45.5,33.0,22.0,26.2,21.3,17.4,89,65,34,30.42,30.22,6,1,10,0.02
2013-3-15,54.1,42.1,30.1,40.1,34.2,25.7,93,75,57,30.22,29.82,4,1,8,0.00
2013-3-16,60.1,47.8,38.0,52.7,42.8,33.6,95,83,67,30.05,29.64,8,2,15,0.30
2013-3-17,38.0,35.8,34.3,33.6,30.8,28.9,91,82,77,30.18,30.03,6,1,9,0.06
2013-3-18,52.1,41.2,34.2,49.8,39.0,32.3,97,92,78,30.04,29.65,9,2,15,0.94
2013-3-19,45.0,37.6,29.3,35.1,23.4,14.4,88,59,30,30.15,29.87,13,4,24,0.00
2013-3-20,37.7,32.3,25.1,23.1,17.8,11.8,77,56,39,30.15,30.00,10,3,22,0.00
2013-3-21,34.5,26.4,20.7,16.5,13.5,10.0,79,58,44,30.10,29.99,6,2,12,0.00
2013-3-22,46.7,33.0,22.1,24.0,17.6,14.5,76,55,32,30.14,30.03,4,0,8,0.00
2013-3-23,53.1,41.2,29.0,26.5,23.5,19.8,73,51,32,30.11,29.92,5,0,9,0.00
2013-3-24,40.0,35.4,32.8,34.1,29.4,24.5,96,80,54,29.92,29.45,5,1,14,0.04
2013-3-25,34.3,32.6,30.1,32.5,30.9,28.3,96,94,91,29.99,29.46,8,2,13,0.08
2013-3-26,40.2,35.2,31.9,33.1,29.9,26.3,93,82,64,30.29,29.99,7,2,11,0.30
2013-3-27,44.1,36.7,29.4,31.1,27.3,24.8,87,70,53,30.36,30.27,7,2,13,0.02
2013-3-28,51.9,39.5,26.6,30.7,26.1,21.5,83,60,40,30.41,30.32,5,1,9,0.00
2013-3-29,57.4,43.2,27.6,34.5,29.8,25.2,93,63,34,30.37,30.23,6,0,9,0.00
2013-3-30,62.4,48.2,31.4,37.2,33.6,28.4,90,60,33,30.28,29.97,5,1,9,0.00
2013-3-31,58.6,50.5,46.3,48.6,43.6,35.7,96,79,55,29.97,29.80,7,1,13,0.09
2013-4-1,50.3,43.1,37.0,41.9,28.4,19.6,82,58,36,30.16,29.81,10,2,14,0.00
2013-4-2,48.1,37.3,23.7,26.3,19.5,14.5,86,51,28,30.31,30.15,7,1,13,0.00
2013-4-3,49.5,37.9,24.0,24.3,18.0,14.4,81,48,25,30.46,30.30,5,1,12,0.00
2013-4-4,57.9,43.5,33.6,27.0,20.2,15.2,61,41,20,30.38,30.03,3,0,10,0.00
2013-4-5,62.9,49.0,33.1,38.9,29.1,25.0,74,48,28,30.16,30.01,7,1,12,0.00
2013-4-6,68.8,53.2,39.0,39.3,31.1,22.4,64,44,29,30.23,29.93,7,2,14,0.00
2013-4-7,75.5,64.1,57.2,55.5,46.0,37.4,91,53,41,30.01,29.87,7,2,20,0.09
2013-4-8,74.4,63.3,54.4,57.0,54.4,51.0,95,75,53,30.02,29.88,6,1,15,0.07
2013-4-9,81.6,69.6,57.2,61.7,56.3,-99.9,84,65,44,30.05,29.92,6,-2,14,0.00
2013-4-10,84.3,74.6,67.0,66.2,61.4,58.5,77,64,48,29.96,29.76,7,1,14,0.00
2013-4-11,68.2,63.0,59.0,63.0,59.4,56.8,97,88,73,29.81,29.54,7,1,15,1.03
2013-4-12,59.0,47.6,41.0,57.9,40.1,32.2,97,76,60,29.95,29.52,9,3,19,0.12
2013-4-13,59.7,48.0,37.4,40.1,35.7,33.0,86,64,39,30.07,29.95,9,2,18,0.00
2013-4-14,72.8,55.8,39.2,48.8,40.7,34.7,85,60,35,30.09,29.89,6,1,10,0.00
2013-4-15,70.1,62.9,55.9,56.4,51.8,45.1,80,67,53,30.01,29.91,4,1,10,0.00
2013-4-16,82.4,65.6,55.4,66.9,59.1,52.2,96,81,55,30.18,29.96,9,1,18,0.38
2013-4-17,80.6,65.5,55.5,66.3,60.4,54.7,98,85,57,30.21,29.96,5,1,10,0.06
2013-4-18,83.4,73.3,63.1,65.8,59.5,53.1,86,64,44,29.97,29.60,8,2,19,0.00
2013-4-19,74.5,49.4,38.7,61.4,41.3,31.8,94,75,51,30.01,29.43,10,3,19,0.59
2013-4-20,51.9,43.1,36.2,35.2,30.7,26.5,88,64,40,30.44,30.01,9,2,16,0.00
2013-4-21,58.5,46.1,33.7,34.2,29.1,25.0,72,53,33,30.56,30.40,4,-3,7,0.00
2013-4-22,73.1,54.9,34.9,44.8,36.4,28.9,82,52,31,30.41,30.14,4,0,9,0.00
2013-4-23,72.4,60.7,47.2,54.9,48.2,41.0,83,64,50,30.16,29.87,4,1,12,0.00
2013-4-24,65.1,51.1,36.8,56.0,44.6,34.9,95,80,61,30.25,29.78,9,2,16,0.56
2013-4-25,60.1,47.4,34.7,43.2,35.6,30.7,96,67,38,30.41,30.25,8,1,14,0.00
2013-4-26,63.7,50.2,32.9,39.3,33.7,29.3,94,58,29,30.50,30.36,4,0,6,0.00
2013-4-27,65.3,55.1,41.3,51.6,42.8,35.4,84,65,39,30.38,30.07,5,1,11,0.00
2013-4-28,67.9,59.4,54.5,62.0,55.7,51.4,96,88,73,30.07,29.84,7,1,13,0.26
2013-4-29,66.2,59.0,53.3,57.3,54.7,51.6,96,86,66,30.02,29.90,4,0,6,0.01
2013-4-30,80.2,64.0,46.7,60.0,53.3,45.8,99,73,38,30.07,29.98,5,0,8,0.00
2013-5-1,85.0,70.2,52.8,61.3,55.9,51.3,97,64,38,30.17,30.06,4,1,8,0.00
2013-5-2,76.6,68.8,61.6,59.1,54.2,51.3,76,60,49,30.20,30.08,5,1,9,0.00
2013-5-3,78.4,68.5,61.1,60.2,53.4,40.5,81,61,35,30.09,29.94,7,1,15,0.00
2013-5-4,74.6,64.7,57.5,55.5,47.0,40.9,84,54,38,30.00,29.92,6,2,12,0.00
2013-5-5,58.3,55.2,52.0,52.7,50.3,46.1,94,84,66,29.99,29.92,4,0,9,0.97
2013-5-6,63.5,58.0,52.8,58.1,54.8,50.8,97,89,78,29.97,29.91,5,1,11,0.71
2013-5-7,75.3,62.5,56.4,60.4,56.9,55.0,97,84,52,30.00,29.91,5,0,8,0.00
2013-5-8,79.1,64.2,53.0,62.7,57.0,52.4,99,81,43,30.01,29.94,6,1,13,0.36
2013-5-9,82.6,68.4,55.9,62.2,57.4,52.6,97,71,38,30.03,29.93,5,1,8,0.00
2013-5-10,71.1,64.4,62.0,63.9,61.4,58.1,97,90,72,29.96,29.81,5,0,11,1.54
2013-5-11,62.1,54.1,46.4,60.9,49.9,41.5,96,86,68,30.03,29.86,5,2,11,0.00
2013-5-12,57.5,48.7,39.8,41.8,35.9,30.3,94,64,38,30.16,30.03,8,2,17,0.00
2013-5-13,64.3,51.8,37.0,41.0,35.1,30.4,94,57,30,30.21,30.13,8,1,18,0.00
2013-5-14,84.5,64.4,43.6,59.8,47.7,35.7,80,56,40,30.17,29.84,7,1,13,0.00
2013-5-15,88.8,78.1,68.2,63.7,59.3,55.8,73,54,36,29.90,29.80,9,3,19,0.00
2013-5-16,77.0,70.8,63.1,68.6,61.3,56.6,94,73,54,29.99,29.83,5,1,11,0.00
2013-5-17,82.6,72.3,59.8,67.6,64.3,58.7,98,78,55,30.07,29.98,4,0,7,0.15
2013-5-18,81.0,68.9,63.9,70.3,65.5,63.0,98,90,60,30.06,29.97,5,0,7,0.59
2013-5-19,86.3,72.7,63.7,71.5,66.6,62.9,99,83,53,30.01,29.89,4,0,7,0.00
2013-5-20,88.4,76.7,67.7,72.9,68.9,66.4,97,78,53,30.00,29.88,4,0,9,0.00
2013-5-21,86.5,76.5,66.9,68.4,65.6,61.9,86,70,50,29.97,29.79,8,1,14,0.00
2013-5-22,81.0,70.5,64.3,67.8,63.9,61.3,95,81,56,29.84,29.73,6,1,10,0.15
2013-5-23,70.5,63.3,53.3,64.1,58.6,47.9,97,85,65,30.09,29.80,9,2,20,0.21
2013-5-24,68.0,56.5,48.4,48.2,43.7,38.8,85,65,37,30.34,30.09,7,2,12,0.00
2013-5-25,67.0,55.4,42.7,50.5,43.6,40.2,94,67,41,30.41,30.24,4,0,7,0.00
2013-5-26,74.1,62.4,54.3,51.4,48.3,43.5,83,62,42,30.33,30.18,4,0,7,0.00
2013-5-27,85.5,70.3,54.9,64.9,54.7,45.8,90,60,38,30.21,29.95,5,1,11,0.11
2013-5-28,84.8,76.8,68.1,68.0,62.5,59.1,80,62,47,30.02,29.92,7,1,16,0.00
2013-5-29,89.5,78.6,68.8,67.3,62.6,58.6,76,59,37,30.07,29.97,6,1,13,0.00
2013-5-30,88.2,79.2,70.7,70.1,66.4,62.1,83,66,51,30.13,29.99,4,1,12,0.00
2013-5-31,84.3,74.0,68.2,71.1,67.0,63.8,96,80,61,30.05,29.93,9,1,24,0.52
2013-6-1,81.6,73.4,68.5,70.5,67.9,65.6,96,83,63,29.96,29.78,5,1,11,0.00
2013-6-2,79.6,71.3,66.0,66.7,62.1,59.0,89,74,51,29.93,29.81,6,2,12,0.00
2013-6-3,71.4,63.7,55.2,59.6,53.5,49.3,87,70,56,30.07,29.92,7,1,11,0.00
2013-6-4,78.6,63.8,49.2,51.8,47.3,40.1,95,60,29,30.16,30.06,5,1,9,0.00
2013-6-5,83.8,69.8,55.3,63.6,56.7,48.8,85,65,46,30.10,29.86,4,0,8,0.00
2013-6-6,75.1,67.8,64.1,68.4,64.4,61.5,96,89,74,29.87,29.77,4,0,8,1.01
2013-6-7,77.7,67.8,59.5,62.1,59.3,56.9,94,76,54,29.89,29.80,5,1,9,0.00
2013-6-8,78.3,67.8,58.6,64.0,59.2,54.7,88,75,59,30.03,29.88,5,0,8,0.00
2013-6-9,82.1,71.9,63.4,69.8,64.6,61.0,93,79,53,30.07,29.90,6,1,9,0.10
2013-6-10,80.0,70.0,64.6,68.9,65.1,62.0,97,85,57,29.91,29.79,7,1,14,0.50
2013-6-11,87.6,74.7,63.8,68.7,64.9,61.9,94,74,47,29.97,29.86,6,2,11,0.00
2013-6-12,92.5,81.6,72.0,76.8,71.5,66.1,86,73,53,29.92,29.72,5,1,12,0.00
2013-6-13,82.6,75.7,66.2,73.5,65.7,56.1,96,72,48,29.92,29.58,14,3,25,0.51
2013-6-14,83.4,70.6,57.6,62.9,57.8,54.1,89,66,43,30.05,29.91,6,1,11,0.00
2013-6-15,85.8,73.1,58.1,65.3,61.0,56.1,96,68,46,30.12,29.95,5,0,12,0.00
2013-6-16,77.3,72.8,67.5,69.3,66.1,62.8,95,80,68,30.02,29.94,6,1,12,0.06
2013-6-17,87.3,75.9,67.3,73.3,68.0,64.2,97,79,50,29.98,29.87,6,0,10,0.00
2013-6-18,85.8,73.6,67.3,70.8,65.5,61.3,93,77,54,29.98,29.83,5,1,12,0.08
2013-6-19,83.6,71.8,59.1,61.4,57.2,54.3,88,63,39,30.11,29.98,4,0,7,0.00
2013-6-20,88.1,73.4,58.4,66.2,58.9,54.5,91,63,37,30.20,30.12,3,0,6,0.00
2013-6-21,90.5,77.0,60.6,67.7,63.3,58.0,92,65,41,30.20,30.10,4,0,8,0.00
2013-6-22,91.7,78.1,69.0,73.8,68.7,65.2,92,74,51,30.16,30.05,7,1,16,0.00
2013-6-23,91.1,76.9,66.5,73.0,68.1,65.1,97,76,46,30.13,30.04,8,1,20,0.05
2013-6-24,87.7,77.0,67.5,72.6,69.0,65.4,94,78,56,30.14,30.01,6,1,10,0.00
2013-6-25,92.0,80.7,68.8,75.9,71.3,67.0,94,75,55,30.06,29.87,6,1,15,0.00
2013-6-26,88.5,74.5,67.5,76.0,69.5,65.9,97,85,63,29.93,29.75,9,1,19,0.73
2013-6-27,86.6,75.2,67.1,73.6,69.8,66.2,98,85,61,29.79,29.69,7,2,12,0.04
2013-6-28,85.6,75.7,65.3,70.8,66.1,60.3,92,74,45,29.70,29.58,11,3,22,0.02
2013-6-29,77.3,69.6,63.6,70.1,65.3,61.5,95,87,70,29.66,29.57,5,0,8,0.51
2013-6-30,81.7,71.7,64.7,68.5,65.6,63.1,97,82,55,29.83,29.65,6,1,10,0.02
2013-7-1,77.6,69.0,64.0,69.7,65.5,61.1,97,89,74,29.93,29.81,5,0,10,0.65
2013-7-2,85.3,72.2,65.6,72.0,66.7,64.7,98,84,56,30.01,29.91,3,0,7,0.01
2013-7-3,82.9,74.6,67.5,70.6,67.9,65.7,95,80,60,30.11,30.01,3,0,6,0.00
2013-7-4,74.0,69.4,68.4,69.9,68.1,66.4,98,95,86,30.15,30.07,3,0,6,0.96
2013-7-5,77.6,70.8,65.7,71.7,68.4,65.1,98,92,80,30.15,30.09,4,0,6,0.09
2013-7-6,78.0,71.0,67.7,73.2,69.0,66.2,99,94,82,30.13,30.04,6,0,11,1.90
2013-7-7,85.6,72.8,64.6,71.7,67.3,64.0,99,84,57,30.13,30.03,4,1,7,0.00
2013-7-8,88.7,78.4,67.5,74.7,70.3,65.7,95,77,59,30.12,30.03,5,1,11,0.00
2013-7-9,90.0,81.9,75.0,78.3,73.2,70.3,86,75,60,30.07,29.96,8,1,17,0.01
2013-7-10,91.7,79.4,69.8,81.0,73.7,68.3,96,83,65,29.98,29.81,6,1,14,0.47
2013-7-11,83.3,74.2,65.5,69.7,65.3,57.4,98,76,55,30.02,29.92,5,1,13,0.00
2013-7-12,82.8,72.1,59.1,64.2,59.4,55.8,94,67,41,30.10,30.02,6,0,10,0.00
2013-7-13,85.5,76.3,66.4,68.6,64.6,59.6,83,68,53,30.13,30.04,5,1,9,0.00
2013-7-14,92.3,79.8,67.7,75.4,70.8,65.3,96,76,53,30.21,30.12,5,1,11,0.11
2013-7-15,93.2,81.8,71.3,74.9,71.9,68.2,97,74,46,30.29,30.20,3,0,5,0.00
2013-7-16,93.8,82.4,71.0,76.9,72.6,69.6,97,75,51,30.32,30.23,6,0,10,0.04
2013-7-17,93.7,83.8,73.8,77.7,74.4,72.3,97,75,52,30.31,30.16,5,1,10,0.00
2013-7-18,95.2,84.8,73.0,75.9,72.4,68.7,93,69,44,30.19,30.00,6,-6,10,0.00
2013-7-19,90.8,82.7,77.5,80.2,75.1,70.4,89,78,59,30.03,29.87,6,1,14,0.17
2013-7-20,90.1,76.3,70.2,76.1,70.8,66.6,93,84,61,29.92,29.83,8,1,18,0.29
2013-7-21,87.8,77.6,69.5,74.3,70.3,67.0,95,79,60,29.96,29.86,4,-3,8,0.00
2013-7-22,82.3,74.1,69.9,75.7,70.8,67.8,97,90,74,29.90,29.75,3,0,6,0.30
2013-7-23,88.3,76.9,69.5,76.6,71.7,67.4,98,85,63,29.83,29.71,6,1,13,0.32
2013-7-24,79.4,68.9,58.7,67.5,60.7,56.3,93,76,56,30.00,29.82,5,1,9,0.00
2013-7-25,81.9,68.9,56.4,61.3,56.9,53.5,91,68,42,30.09,30.00,4,0,8,0.00
2013-7-26,83.8,70.8,56.7,65.2,59.9,55.6,97,71,47,30.09,29.97,4,0,8,0.00
2013-7-27,78.3,69.2,63.7,68.5,62.7,57.6,96,81,51,29.97,29.84,6,1,13,0.17
2013-7-28,74.4,65.4,54.6,57.8,53.1,49.6,91,66,46,30.06,29.91,6,2,12,0.00
2013-7-29,79.0,67.4,54.6,59.5,56.1,52.0,93,69,47,30.19,30.06,7,1,12,0.00
2013-7-30,81.2,69.3,56.3,64.6,60.4,55.2,98,75,50,30.23,30.11,4,0,5,0.00
2013-7-31,79.9,71.1,65.4,69.9,65.9,62.7,95,84,68,30.12,29.94,3,0,6,0.02
2013-8-1,83.2,73.5,66.3,68.4,64.1,56.6,97,75,44,30.00,29.91,7,2,15,0.01
2013-8-2,85.3,72.7,59.3,66.1,61.8,56.9,94,70,48,30.01,29.95,6,1,14,0.00
2013-8-3,83.3,73.8,68.0,70.7,66.2,61.2,94,78,51,30.03,29.95,6,1,9,0.04
2013-8-4,80.3,70.8,59.7,62.9,57.4,53.1,83,64,41,30.13,30.03,6,1,12,0.00
2013-8-5,81.9,69.8,56.0,61.6,57.7,54.5,96,68,44,30.12,29.97,4,0,6,0.00
2013-8-6,83.5,74.5,67.5,69.8,64.3,58.2,90,71,60,29.98,29.91,4,0,7,0.00
2013-8-7,86.3,77.0,69.5,75.4,71.5,67.8,96,84,67,29.94,29.86,4,0,8,0.00
2013-8-8,88.7,77.1,70.1,78.5,72.6,68.9,97,87,65,29.95,29.88,7,0,11,1.13
2013-8-9,85.2,74.6,69.5,74.4,71.0,68.7,99,89,65,30.02,29.89,4,1,8,0.12
2013-8-10,88.0,76.6,69.3,72.6,69.5,67.0,98,80,53,30.11,30.02,4,0,7,0.00
2013-8-11,88.0,77.2,69.3,73.2,68.7,63.6,97,77,53,30.09,30.01,7,1,12,0.00
2013-8-12,86.6,75.1,65.1,74.9,68.7,64.0,98,82,54,30.07,29.86,5,0,8,0.16
2013-8-13,79.4,72.4,61.1,72.7,64.1,51.6,96,76,55,30.06,29.85,7,2,14,0.00
2013-8-14,74.6,63.2,53.3,53.9,51.2,49.3,89,67,45,30.18,30.06,5,1,10,0.00
2013-8-15,76.7,63.3,50.1,57.6,53.6,48.8,98,73,47,30.19,30.09,4,0,6,0.00
2013-8-16,80.7,68.0,53.6,59.6,55.9,52.0,97,68,42,30.16,30.11,4,0,11,0.00
2013-8-17,85.6,70.4,57.8,65.0,59.3,54.9,91,70,44,30.19,30.11,5,0,8,0.00
2013-8-18,84.9,72.6,60.1,66.2,62.2,57.3,97,73,43,30.18,30.08,4,0,6,0.00
2013-8-19,87.3,74.2,61.5,69.7,62.6,59.3,98,71,41,30.14,30.05,4,0,6,0.00
2013-8-20,87.6,74.8,62.2,70.6,64.3,60.9,98,72,47,30.17,30.08,5,0,7,0.00
2013-8-21,89.0,76.8,67.8,72.8,68.5,65.2,93,76,51,30.15,30.05,5,0,7,0.00
2013-8-22,88.1,76.4,68.4,73.6,69.2,66.2,95,80,52,30.11,30.01,5,1,10,0.02
2013-8-23,87.5,74.5,66.2,71.7,67.2,64.0,98,80,53,30.14,30.04,4,0,9,0.04
2013-8-24,87.9,73.8,59.5,68.9,62.1,57.5,94,69,41,30.26,30.14,4,0,8,0.00
2013-8-25,90.6,74.6,59.6,66.4,60.8,57.4,98,66,35,30.33,30.21,4,0,6,0.00
2013-8-26,89.5,76.5,63.7,72.9,66.4,58.2,88,73,48,30.25,30.07,7,1,13,0.00
2013-8-27,90.7,80.7,72.5,76.3,72.7,69.6,93,78,57,30.08,29.95,5,1,9,0.00
2013-8-28,94.7,83.1,74.8,75.6,73.3,71.3,92,74,49,29.96,29.85,8,2,15,0.00
2013-8-29,88.6,78.5,70.3,74.8,70.7,67.8,96,78,54,30.02,29.94,4,0,7,0.00
2013-8-30,91.5,78.1,66.8,72.8,68.6,65.8,98,75,49,29.99,29.82,5,1,10,0.00
2013-8-31,94.9,78.5,68.6,76.9,71.2,65.5,97,80,50,29.88,29.70,9,1,17,0.71
2013-9-1,86.4,75.2,67.3,74.3,69.8,66.4,98,85,62,29.83,29.76,5,1,10,0.01
2013-9-2,87.0,77.5,70.9,74.0,69.5,60.1,97,78,53,29.88,29.77,7,2,15,0.00
2013-9-3,78.4,67.6,58.6,60.5,57.6,54.8,91,72,51,30.06,29.88,6,1,10,0.00
2013-9-4,83.8,68.6,54.7,64.0,58.9,53.7,98,74,45,30.16,30.06,4,0,8,0.00
2013-9-5,88.1,73.4,59.5,65.6,61.0,51.1,97,68,41,30.19,30.12,4,0,8,0.00
2013-9-6,84.5,72.8,56.1,57.4,53.4,49.0,82,53,33,30.24,30.10,4,0,7,0.00
2013-9-7,87.5,69.5,57.4,69.4,59.4,53.7,91,71,50,30.11,29.95,5,0,10,0.00
2013-9-8,91.3,78.4,68.2,70.6,67.8,65.2,92,71,47,29.99,29.91,3,0,6,0.00
2013-9-9,93.5,80.3,69.3,73.4,69.6,66.7,95,72,46,30.03,29.94,6,0,10,0.00
2013-9-10,94.4,83.0,75.3,77.3,72.8,69.2,87,72,55,30.12,30.01,6,1,10,0.00
2013-9-11,92.6,80.7,72.0,76.2,71.6,68.4,89,75,54,30.14,30.01,4,0,8,0.00
2013-9-12,80.4,75.2,67.7,72.3,69.7,61.7,93,83,64,30.00,29.86,7,2,13,0.07
2013-9-13,67.7,60.5,50.9,61.3,50.3,45.0,86,70,50,30.10,29.90,6,1,13,0.00
2013-9-14,73.7,57.4,44.0,49.0,45.4,41.3,95,68,35,30.20,30.09,4,0,7,0.00
2013-9-15,79.8,63.6,47.0,59.6,52.7,45.3,97,70,44,30.16,30.03,6,1,10,0.00
2013-9-16,74.4,64.8,58.0,59.9,56.8,52.5,92,76,53,30.28,30.08,4,0,9,0.01
2013-9-17,77.7,63.7,49.9,57.2,53.0,48.1,95,71,44,30.33,30.17,4,1,9,0.00
2013-9-18,80.5,67.8,58.0,65.9,60.1,52.4,94,77,52,30.17,30.06,4,0,7,0.01
2013-9-19,82.3,71.3,65.3,70.9,67.0,64.2,97,87,64,30.10,29.97,6,0,11,0.25
2013-9-20,87.5,73.5,66.7,72.5,68.6,65.7,98,86,57,30.00,29.79,5,1,12,1.27
2013-9-21,74.3,65.5,58.4,67.5,58.6,50.0,98,80,44,29.89,29.69,6,2,13,0.98
2013-9-22,70.7,58.3,48.8,51.2,48.2,44.8,93,72,41,30.03,29.89,5,0,10,0.00
2013-9-23,72.0,57.1,44.4,52.3,48.0,43.3,98,74,46,30.14,30.03,3,0,8,0.00
2013-9-24,77.9,60.5,46.2,60.4,52.3,44.0,94,76,53,30.11,29.93,4,0,6,0.00
2013-9-25,76.2,63.2,54.1,59.0,54.5,51.6,93,75,49,29.94,29.88,4,0,7,0.00
2013-9-26,80.6,62.4,48.5,62.1,55.3,47.6,98,80,49,30.08,29.93,4,0,6,0.00
2013-9-27,82.7,64.2,49.9,61.3,53.3,48.8,98,72,33,30.18,30.08,3,0,5,0.00
2013-9-28,83.2,65.5,50.9,62.3,55.9,49.5,97,74,43,30.20,30.07,5,0,6,0.00
2013-9-29,68.7,62.2,57.6,61.6,59.2,56.2,97,90,74,30.07,30.01,4,0,9,0.05
2013-9-30,75.5,65.3,61.0,65.2,61.8,59.9,97,89,68,30.04,29.96,4,0,7,0.05
2013-10-1,78.8,66.7,57.2,66.1,61.5,56.6,99,85,62,30.10,30.01,4,0,8,0.00
2013-10-2,78.8,67.5,61.1,70.2,64.1,59.8,98,89,73,30.12,30.05,2,0,4,0.00
2013-10-3,82.0,70.0,67.5,72.5,68.0,66.0,98,94,62,30.09,30.00,4,0,6,0.31
2013-10-4,86.1,73.1,63.7,71.1,67.1,62.8,98,83,57,30.09,30.01,4,0,9,0.00
2013-10-5,81.6,72.2,68.3,72.8,68.7,66.3,98,89,71,30.06,29.94,4,0,7,0.48
2013-10-6,71.5,63.8,54.2,68.8,62.6,52.6,99,96,89,29.95,29.71,7,1,13,2.70
2013-10-7,62.6,52.7,45.7,53.2,46.3,43.8,96,80,55,30.18,29.84,7,1,13,0.00
2013-10-8,70.6,53.6,42.2,51.3,45.9,41.6,99,79,42,30.31,30.18,5,0,8,0.00
2013-10-9,76.6,56.6,43.4,55.4,48.1,42.6,98,77,41,30.26,30.17,4,0,7,0.00
2013-10-10,76.0,56.8,42.5,51.5,47.0,41.7,98,74,35,30.22,30.09,3,0,6,0.00
2013-10-11,81.0,60.8,46.6,57.4,51.0,45.2,97,74,37,30.13,30.03,3,0,4,0.00
2013-10-12,80.3,63.1,50.4,62.8,56.1,49.5,98,80,46,30.13,30.04,4,0,6,0.00
2013-10-13,76.8,63.6,55.5,62.5,56.1,43.6,98,78,51,30.31,30.12,6,0,8,0.00
2013-10-14,74.5,58.5,47.0,54.1,47.6,42.8,87,69,40,30.35,30.19,4,0,6,0.00
2013-10-15,75.5,63.2,52.0,65.4,59.0,49.8,98,87,70,30.20,29.95,4,0,7,0.00
2013-10-16,68.3,62.1,48.8,62.8,57.2,46.1,97,85,56,29.97,29.90,5,1,9,0.10
2013-10-17,55.0,48.8,42.4,50.8,45.7,41.4,98,90,76,30.02,29.90,6,0,14,0.08
2013-10-18,67.1,52.5,42.8,52.2,45.7,42.0,98,80,47,30.08,29.96,6,0,9,0.01
2013-10-19,53.6,46.7,39.7,47.2,43.3,38.3,95,88,75,30.03,29.85,7,1,15,0.12
2013-10-20,64.3,49.4,38.1,47.3,41.3,36.3,94,75,49,30.08,30.02,6,0,12,0.00
2013-10-21,67.8,53.7,41.3,49.3,43.5,38.6,91,70,44,30.04,29.92,6,1,11,0.01
2013-10-22,54.1,44.8,31.6,47.0,34.4,28.3,95,69,41,30.08,29.88,6,1,11,0.04
2013-10-23,45.9,42.0,36.3,41.2,36.4,30.9,95,81,60,30.08,29.76,6,1,14,0.10
2013-10-24,44.5,39.1,34.0,36.7,34.4,31.5,96,84,63,30.31,30.08,7,-2,12,0.14
2013-10-25,50.2,40.5,30.5,34.4,30.4,27.7,93,70,45,30.48,30.31,4,1,9,0.01
2013-10-26,54.5,42.7,33.4,40.6,33.0,27.6,83,69,54,30.33,29.98,6,1,13,0.00
2013-10-27,60.2,44.4,33.3,41.0,36.7,32.0,97,77,41,30.15,30.07,4,0,7,0.00
2013-10-28,64.8,45.3,31.9,42.1,36.4,30.9,98,76,35,30.33,30.12,4,0,6,0.00
2013-10-29,57.1,46.7,35.0,50.0,41.5,33.6,97,83,67,30.39,30.24,2,0,4,0.02
2013-10-30,62.7,57.7,51.9,62.1,56.8,49.8,98,97,91,30.24,30.02,3,0,4,0.16
2013-10-31,64.8,62.7,58.0,63.7,59.7,55.3,98,90,80,30.02,29.36,15,1,37,1.42
2013-11-1,64.3,56.7,48.3,55.3,48.5,43.5,95,76,51,29.77,29.43,9,2,19,0.03
2013-11-2,55.4,49.9,44.3,43.8,40.8,37.1,85,72,53,30.12,29.76,7,2,14,0.00
2013-11-3,58.2,45.0,37.8,42.3,38.9,35.6,93,80,51,30.40,30.12,3,0,6,0.00
2013-11-4,58.2,48.8,39.5,44.9,39.8,33.5,86,72,57,30.44,30.33,5,0,11,0.00
2013-11-5,62.2,54.6,49.6,47.7,44.7,40.4,92,70,53,30.43,30.23,3,0,6,0.01
2013-11-6,66.2,56.4,45.2,59.2,49.6,39.5,95,79,61,30.23,30.00,9,1,17,0.26
2013-11-7,49.6,43.1,35.5,43.5,34.5,27.9,95,73,45,30.29,30.04,8,2,14,0.06
2013-11-8,52.5,40.0,30.6,34.2,31.3,28.2,92,73,42,30.42,30.24,7,1,12,0.00
2013-11-9,62.5,49.6,36.3,41.1,34.9,29.1,75,58,40,30.28,30.06,8,1,20,0.00
2013-11-10,51.8,44.6,31.6,41.5,33.5,28.3,91,66,47,30.38,30.13,9,2,17,0.00
2013-11-11,57.9,43.7,30.5,44.6,34.9,28.6,95,74,36,30.34,30.12,8,-3,14,0.10
2013-11-12,36.6,30.5,25.9,34.5,24.4,20.9,95,79,55,30.67,30.29,7,2,14,0.02
2013-11-13,41.7,30.6,22.0,24.0,21.2,17.4,92,70,41,30.69,30.45,6,1,12,0.00
2013-11-14,55.5,41.5,31.0,27.2,22.8,20.0,70,50,28,30.45,30.20,5,1,9,0.00
2013-11-15,53.7,46.2,37.8,43.8,30.9,22.1,87,56,42,30.21,30.12,3,0,7,0.00
2013-11-16,61.2,53.2,47.7,56.6,49.9,43.4,94,89,84,30.17,29.93,4,1,11,0.00
2013-11-17,64.5,59.8,51.9,62.8,56.1,41.3,96,88,64,29.94,29.52,14,3,28,1.16
2013-11-18,53.6,46.8,37.7,41.8,35.8,28.4,86,66,48,30.22,29.81,12,3,20,0.00
2013-11-19,44.0,35.9,30.4,31.0,28.5,26.9,87,75,57,30.39,30.22,4,0,9,0.00
2013-11-20,50.4,38.2,27.1,34.6,29.9,23.5,89,73,53,30.37,30.26,5,0,9,0.00
2013-11-21,57.4,48.8,41.5,48.1,40.3,33.4,93,73,59,30.36,30.22,4,0,7,0.05
2013-11-22,54.4,48.7,38.2,53.0,45.8,31.2,97,90,74,30.40,30.19,8,1,14,0.14
2013-11-23,38.6,31.7,22.4,31.6,23.6,13.6,93,73,47,30.61,30.39,10,3,19,0.00
2013-11-24,28.9,21.8,16.7,16.1,12.2,7.7,87,67,52,30.74,30.58,6,1,11,0.00
2013-11-25,39.8,30.4,18.1,30.1,18.5,13.1,87,62,45,30.59,30.24,5,1,11,0.00
2013-11-26,35.7,33.6,32.3,32.3,30.5,27.7,94,88,82,30.26,29.96,7,1,10,0.02
2013-11-27,33.5,28.0,22.4,29.3,21.2,14.4,89,75,67,30.34,29.96,9,3,17,0.00
2013-11-28,36.1,26.4,19.5,19.5,16.5,13.1,80,67,48,30.50,30.34,5,1,12,0.00
2013-11-29,42.4,28.6,17.8,24.8,20.7,15.4,93,73,47,30.68,30.50,2,0,6,0.00
2013-11-30,52.6,37.1,24.2,32.0,27.3,20.8,89,69,44,30.56,30.22,5,0,9,0.00
2013-12-1,52.6,46.4,41.2,39.0,34.3,28.6,74,63,56,30.22,29.98,5,0,12,0.00
2013-12-2,53.2,44.8,36.8,41.6,38.3,33.8,91,78,63,29.98,29.81,2,0,5,0.00
2013-12-3,52.8,44.2,32.8,47.3,41.7,31.8,98,91,80,29.92,29.82,4,0,7,0.00
2013-12-4,61.6,54.5,46.3,57.6,51.9,44.4,96,91,85,29.89,29.74,4,1,8,0.00
2013-12-5,64.5,48.8,32.1,60.9,45.4,29.0,96,88,79,30.19,29.77,8,2,12,0.27
2013-12-6,32.3,28.8,26.6,29.9,27.1,24.9,95,93,88,30.44,30.15,4,1,9,0.06
2013-12-7,29.7,23.6,18.3,25.2,19.8,15.4,94,85,70,30.65,30.43,3,0,7,0.00
2013-12-8,32.5,25.6,19.4,31.7,22.8,15.6,97,89,82,30.58,30.07,3,0,9,0.00
2013-12-9,33.3,29.9,24.6,32.5,27.0,19.8,97,89,81,30.27,30.05,7,1,14,0.00
2013-12-10,30.4,23.5,19.4,20.4,17.9,14.0,92,79,63,30.41,30.20,6,1,14,0.00
2013-12-11,36.0,23.5,12.6,25.6,17.8,10.4,94,79,63,30.57,30.33,7,2,15,0.02
2013-12-12,25.5,17.8,7.4,12.6,8.4,4.1,87,68,42,30.61,30.40,5,1,9,0.00
2013-12-13,39.6,29.9,20.0,31.4,20.0,11.8,91,67,53,30.41,30.19,5,0,9,0.02
2013-12-14,38.8,35.4,32.3,38.0,34.0,30.5,97,95,89,30.20,29.74,8,1,15,0.60
2013-12-15,32.3,29.0,27.4,30.5,24.6,22.0,94,84,69,30.17,29.92,10,3,18,0.00
2013-12-16,36.2,31.2,27.6,33.6,29.1,23.6,95,92,84,30.17,30.03,3,0,6,0.00
2013-12-17,36.2,31.4,27.8,33.6,27.9,24.5,94,87,79,30.21,30.02,9,2,15,0.00
2013-12-18,38.3,30.6,23.3,25.8,21.4,18.3,91,70,46,30.33,30.10,7,1,12,0.00
2013-12-19,54.3,46.9,37.1,43.6,33.7,22.5,72,60,53,30.13,29.99,6,1,12,0.06
2013-12-20,60.4,55.5,51.6,57.5,48.3,39.3,91,78,57,29.99,29.84,6,2,18,0.01
2013-12-21,66.4,61.0,57.6,63.4,59.4,56.5,98,95,88,29.84,29.46,7,2,15,1.92
2013-12-22,62.1,52.4,38.8,60.9,49.2,36.0,97,89,76,30.06,29.55,7,2,16,0.40
2013-12-23,38.8,31.8,25.0,36.2,26.5,18.8,94,80,71,30.43,30.06,8,3,15,0.02
2013-12-24,26.0,19.2,14.4,21.4,13.1,8.8,89,77,62,30.60,30.41,8,2,14,0.00
2013-12-25,34.3,27.1,17.8,24.5,17.9,13.3,83,69,53,30.55,30.25,4,1,10,0.00
2013-12-26,41.0,34.0,29.4,27.8,24.6,21.0,81,69,50,30.41,30.23,9,2,16,0.00
2013-12-27,50.0,38.3,29.9,33.1,28.6,24.5,81,68,51,30.45,30.32,5,1,10,0.00
2013-12-28,53.4,43.5,35.5,35.7,31.4,28.8,78,63,49,30.32,30.05,4,1,9,0.00
2013-12-29,44.4,39.5,32.7,40.6,35.7,29.1,95,87,59,30.07,29.83,8,1,15,0.29
2013-12-30,32.7,27.5,22.4,30.1,21.1,16.6,90,77,66,30.29,30.07,6,2,12,0.00
2013-12-31,34.3,28.0,22.7,22.9,18.7,15.4,81,68,53,30.43,30.22,9,2,15,0.00
2014-1-1,46.4,34.3,22.3,31.7,25.9,19.8,93,73,51,30.33,30.05,3,0,7,0.00
2014-1-2,36.6,24.9,10.7,31.8,21.7,5.5,96,87,72,30.33,29.85,0,0,2,0.00